• In Germany
  • List of Countries
  • For 7 days
  • Water Temperature
  • Satellite Maps
  • Weather Map
  • Weather Widgets
  • user-avatar
    Login

    Hourly Weather Smolan

    Today, 22 November, Wednesday

    Time Temperature Precipitation Wind Pressure Humidity
    00:00 -3°C° 0 mm 2 mps 654 mmHg 64%
    01:00 -3°C° 0 mm 2 mps 654 mmHg 64%
    02:00 -2°C° 0 mm 2 mps 654 mmHg 64%
    03:00 -2°C° 0 mm 2 mps 654 mmHg 65%
    04:00 -2°C° 0 mm 2 mps 654 mmHg 65%
    05:00 -2°C° 0 mm 2 mps 654 mmHg 66%
    06:00 -2°C° 0 mm 2 mps 654 mmHg 65%
    07:00 -2°C° 0 mm 2 mps 654 mmHg 65%
    08:00 -1°C° 0 mm 2 mps 654 mmHg 64%
    09:00 +2°C° 0 mm 2 mps 655 mmHg 58%
    10:00 +5°C° 0 mm 1 mps 656 mmHg 52%
    11:00 +8°C° 0 mm 1 mps 657 mmHg 45%
    12:00 +7°C° 0 mm 2 mps 657 mmHg 45%
    13:00 +8°C° 0 mm 2 mps 657 mmHg 45%
    14:00 +8°C° 0 mm 2 mps 657 mmHg 45%
    15:00 +7°C° 0 mm 2 mps 656 mmHg 52%
    16:00 +6°C° 0 mm 1 mps 655 mmHg 58%
    17:00 +4°C° 0 mm 1 mps 655 mmHg 65%
    18:00 +4°C° 0 mm 1 mps 655 mmHg 67%
    19:00 +4°C° 0 mm 1 mps 655 mmHg 68%
    20:00 +2°C° 0 mm 2 mps 655 mmHg 69%
    21:00 +2°C° 0 mm 2 mps 655 mmHg 68%
    22:00 +2°C° 0 mm 2 mps 655 mmHg 67%
    23:00 +2°C° 0 mm 2 mps 655 mmHg 66%

    Tomorrow, 23 November, Thursday

    Time Temperature Precipitation Wind Pressure Humidity
    00:00 +2°C° 0 mm 2 mps 655 mmHg 64%
    01:00 +2°C° 0 mm 2 mps 655 mmHg 63%
    02:00 +2°C° 0 mm 2 mps 655 mmHg 61%
    03:00 +2°C° 0 mm 2 mps 655 mmHg 61%
    04:00 +2°C° 0 mm 2 mps 655 mmHg 61%
    05:00 +2°C° 0 mm 2 mps 655 mmHg 61%
    06:00 +2°C° 0 mm 2 mps 656 mmHg 61%
    07:00 +3°C° 0 mm 1 mps 656 mmHg 61%
    08:00 +3°C° 0 mm 1 mps 656 mmHg 60%
    09:00 +5°C° 0 mm 1 mps 657 mmHg 54%
    10:00 +8°C° 0 mm 1 mps 658 mmHg 49%
    11:00 +10°C° 0 mm 1 mps 659 mmHg 43%
    12:00 +10°C° 0 mm 1 mps 659 mmHg 42%
    13:00 +11°C° 0 mm 1 mps 659 mmHg 42%
    14:00 +11°C° 0 mm 1 mps 659 mmHg 42%
    15:00 +9°C° 0 mm 1 mps 658 mmHg 49%
    16:00 +8°C° 0 mm 1 mps 658 mmHg 56%
    17:00 +6°C° 0 mm 1 mps 657 mmHg 64%
    18:00 +5°C° 0 mm 1 mps 657 mmHg 65%
    19:00 +5°C° 0 mm 1 mps 658 mmHg 66%
    20:00 +4°C° 0 mm 1 mps 658 mmHg 68%
    21:00 +4°C° 0 mm 1 mps 658 mmHg 68%
    22:00 +4°C° 0 mm 1 mps 658 mmHg 68%
    23:00 +4°C° 0 mm 1 mps 658 mmHg 68%

    Day after tomorrow, 24 November, Friday

    Time Temperature Precipitation Wind Pressure Humidity
    00:00 +4°C° 0 mm 1 mps 658 mmHg 68%
    01:00 +3°C° 0 mm 1 mps 658 mmHg 68%
    02:00 +3°C° 0 mm 1 mps 658 mmHg 67%
    03:00 +3°C° 0 mm 1 mps 658 mmHg 67%
    04:00 +3°C° 0 mm 1 mps 657 mmHg 67%
    05:00 +3°C° 0 mm 1 mps 657 mmHg 66%
    06:00 +3°C° 0 mm 1 mps 658 mmHg 66%
    07:00 +3°C° 0 mm 1 mps 658 mmHg 65%
    08:00 +3°C° 0 mm 1 mps 658 mmHg 64%
    09:00 +5°C° 0 mm 1 mps 659 mmHg 58%
    10:00 +7°C° 0 mm 1 mps 659 mmHg 52%
    11:00 +9°C° 0 mm 1 mps 660 mmHg 46%
    12:00 +10°C° 0 mm 1 mps 660 mmHg 45%
    13:00 +10°C° 0 mm 1 mps 660 mmHg 45%
    14:00 +11°C° 0 mm 1 mps 660 mmHg 45%
    15:00 +9°C° 0 mm 1 mps 659 mmHg 52%
    16:00 +7°C° 0 mm 1 mps 659 mmHg 60%
    17:00 +5°C° 0 mm 1 mps 658 mmHg 68%
    18:00 +5°C° 0 mm 1 mps 658 mmHg 70%
    19:00 +4°C° 0 mm 1 mps 658 mmHg 73%
    20:00 +4°C° 0 mm 1 mps 658 mmHg 75%
    21:00 +4°C° 0 mm 1 mps 659 mmHg 75%
    22:00 +3°C° 0 mm 1 mps 659 mmHg 76%
    23:00 +3°C° 0 mm 1 mps 659 mmHg 77%

    25 November, Saturday

    Time Temperature Precipitation Wind Pressure Humidity
    00:00 +3°C° 0 mm 1 mps 659 mmHg 78%
    01:00 +3°C° 0 mm 1 mps 659 mmHg 78%
    02:00 +3°C° 0 mm 1 mps 659 mmHg 79%
    03:00 +2°C° 0 mm 1 mps 658 mmHg 80%
    04:00 +2°C° 0 mm 1 mps 658 mmHg 81%
    05:00 +2°C° 0 mm 1 mps 658 mmHg 81%
    06:00 +2°C° 0 mm 1 mps 658 mmHg 82%
    07:00 +2°C° 0 mm 1 mps 659 mmHg 82%
    08:00 +2°C° 0 mm 1 mps 659 mmHg 82%
    09:00 +4°C° 0 mm 1 mps 659 mmHg 75%
    10:00 +6°C° 0 mm 1 mps 660 mmHg 68%
    11:00 +7°C° 0 mm 1 mps 660 mmHg 62%
    12:00 +7°C° 0 mm 2 mps 660 mmHg 60%
    13:00 +7°C° 0 mm 2 mps 660 mmHg 58%
    14:00 +8°C° 0 mm 2 mps 659 mmHg 56%
    15:00 +6°C° 0 mm 2 mps 659 mmHg 63%
    16:00 +6°C° 0 mm 1 mps 658 mmHg 70%
    17:00 +4°C° 0 mm 1 mps 658 mmHg 77%
    18:00 +4°C° 0 mm 1 mps 658 mmHg 79%
    19:00 +3°C° 0 mm 1 mps 658 mmHg 81%
    20:00 +3°C° 0 mm 1 mps 658 mmHg 84%
    21:00 +2°C° 0 mm 1 mps 658 mmHg 84%
    22:00 +2°C° 0 mm 1 mps 658 mmHg 84%
    23:00 +2°C° 0 mm 1 mps 658 mmHg 84%

    26 November, Sunday

    Time Temperature Precipitation Wind Pressure Humidity
    00:00 +2°C° 0 mm 1 mps 657 mmHg 83%
    01:00 +1°C° 0 mm 1 mps 657 mmHg 82%
    02:00 +1°C° 0 mm 1 mps 657 mmHg 81%
    03:00 +1°C° 0 mm 1 mps 657 mmHg 79%
    04:00 +1°C° 0 mm 1 mps 657 mmHg 78%
    05:00 +1°C° 0 mm 1 mps 656 mmHg 77%
    06:00 +1°C° 0 mm 1 mps 656 mmHg 76%
    07:00 +1°C° 0 mm 1 mps 656 mmHg 75%
    08:00 +1°C° 0 mm 1 mps 657 mmHg 73%
    09:00 +3°C° 0 mm 1 mps 657 mmHg 68%
    10:00 +5°C° 0 mm 1 mps 658 mmHg 62%
    11:00 +7°C° 0 mm 1 mps 658 mmHg 56%
    12:00 +8°C° 0 mm 1 mps 658 mmHg 55%
    13:00 +7°C° 0 mm 2 mps 658 mmHg 54%
    14:00 +8°C° 0 mm 2 mps 657 mmHg 54%
    15:00 +6°C° 0 mm 2 mps 657 mmHg 62%
    16:00 +6°C° 0 mm 1 mps 656 mmHg 71%
    17:00 +4°C° 0 mm 1 mps 656 mmHg 79%
    18:00 +4°C° 0 mm 1 mps 656 mmHg 82%
    19:00 +3°C° 0 mm 1 mps 656 mmHg 84%
    20:00 +3°C° 0 mm 1 mps 656 mmHg 87%
    21:00 +3°C° 0 mm 1 mps 655 mmHg 87%
    22:00 +2°C° 0 mm 1 mps 655 mmHg 87%
    23:00 +2°C° 0 mm 1 mps 655 mmHg 88%

    27 November, Monday

    Time Temperature Precipitation Wind Pressure Humidity
    00:00 +2°C° 0 mm 1 mps 655 mmHg 87%
    01:00 +2°C° 0 mm 1 mps 654 mmHg 87%
    02:00 +1°C° 0 mm 2 mps 654 mmHg 86%
    03:00 +1°C° 0 mm 2 mps 654 mmHg 86%
    04:00 +1°C° 0 mm 2 mps 653 mmHg 86%
    05:00 +1°C° 0 mm 2 mps 653 mmHg 86%
    06:00 +1°C° 0 mm 2 mps 653 mmHg 86%
    07:00 +1°C° 0 mm 2 mps 653 mmHg 86%
    08:00 +2°C° 0 mm 2 mps 653 mmHg 86%
    09:00 +3°C° 0.2 mm 2 mps 653 mmHg 84%
    10:00 +4°C° 0.2 mm 2 mps 653 mmHg 82%
    11:00 +5°C° 0.2 mm 2 mps 654 mmHg 80%
    12:00 +5°C° 0.7 mm 2 mps 653 mmHg 82%
    13:00 +5°C° 0.7 mm 2 mps 653 mmHg 85%
    14:00 +4°C° 0.7 mm 2 mps 653 mmHg 87%
    15:00 +4°C° 0.8 mm 2 mps 653 mmHg 88%
    16:00 +3°C° 0.8 mm 2 mps 652 mmHg 89%
    17:00 +3°C° 0.8 mm 2 mps 652 mmHg 90%
    18:00 +2°C° 0.1 mm 2 mps 652 mmHg 89%
    19:00 +2°C° 0.1 mm 2 mps 653 mmHg 88%
    20:00 +1°C° 0.1 mm 2 mps 653 mmHg 87%
    21:00 +1°C° 0 mm 2 mps 653 mmHg 86%
    22:00 +1°C° 0 mm 2 mps 653 mmHg 84%
    23:00 -1°C° 0 mm 2 mps 654 mmHg 83%
    Show more